Total_Precipitation_Accumulation
0.00 0.02 0.11 0.16 0.18 0.30 0.31 0.15 0.07 0.03 0.01 0.01 0.01 0.01 0.01 0.00 0.02 0.05 0.00 0.00 0.00 0.00 0.00 0.01 0.01 0.00 0.00 0.01 0.00 0.00 0.00 0.01 0.01 0.00 0.01 0.01 0.01 0.00 0.01 0.01 0.01 0.01 0.01 0.02 0.01 0.01 0.01 0.01 0.00
0.00 0.01 0.07 0.12 0.25 0.57 0.36 0.13 0.05 0.02 0.02 0.02 0.01 0.01 0.00 0.00 0.00 0.00 0.00 0.00 0.00 0.00 0.00 0.00 0.01 0.00 0.00 0.00 0.00 0.00 0.01 0.01 0.01 0.01 0.01 0.01 0.01 0.01 0.01 0.01 0.01 0.01 0.02 0.02 0.01 0.01 0.01 0.00 0.00
0.00 0.00 0.04 0.09 0.23 0.41 0.23 0.08 0.04 0.02 0.02 0.02 0.02 0.01 0.00 0.00 0.00 0.00 0.00 0.00 0.00 0.00 0.00 0.00 0.01 0.00 0.00 0.00 0.01 0.01 0.01 0.01 0.01 0.01 0.01 0.01 0.01 0.01 0.01 0.01 0.01 0.01 0.02 0.02 0.01 0.01 0.00 0.00 0.01
0.00 0.00 0.01 0.04 0.10 0.17 0.13 0.08 0.05 0.04 0.03 0.02 0.01 0.01 0.01 0.00 0.00 0.00 0.00 0.00 0.00 0.00 0.00 0.00 0.01 0.00 0.00 0.00 0.01 0.01 0.01 0.01 0.02 0.02 0.01 0.02 0.02 0.02 0.02 0.02 0.01 0.02 0.02 0.02 0.01 0.01 0.01 0.00 0.01
0.00 0.00 0.00 0.02 0.05 0.13 0.14 0.10 0.07 0.04 0.02 0.02 0.01 0.02 0.02 0.01 0.00 0.00 0.00 0.00 0.00 0.00 0.00 0.00 0.01 0.01 0.00 0.01 0.01 0.01 0.02 0.02 0.02 0.02 0.01 0.01 0.02 0.02 0.02 0.02 0.01 0.02 0.02 0.03 0.02 0.02 0.01 0.01 0.01
0.00 0.00 0.00 0.01 0.03 0.07 0.10 0.08 0.07 0.05 0.02 0.02 0.02 0.02 0.03 0.01 0.00 0.00 0.00 0.00 0.00 0.00 0.00 0.01 0.01 0.01 0.01 0.01 0.01 0.01 0.01 0.02 0.02 0.02 0.02 0.02 0.02 0.02 0.03 0.03 0.03 0.03 0.04 0.05 0.03 0.02 0.02 0.02 0.02
0.00 0.00 0.00 0.00 0.01 0.03 0.06 0.07 0.06 0.04 0.03 0.03 0.04 0.04 0.05 0.04 0.01 0.00 0.00 0.00 0.00 0.00 0.00 0.01 0.01 0.01 0.01 0.02 0.02 0.02 0.02 0.02 0.02 0.02 0.02 0.02 0.02 0.03 0.05 0.07 0.07 0.06 0.06 0.07 0.05 0.03 0.03 0.03 0.03
0.00 0.00 0.00 0.00 0.01 0.01 0.03 0.04 0.04 0.04 0.03 0.03 0.05 0.07 0.09 0.06 0.01 0.00 0.00 0.00 0.01 0.01 0.01 0.01 0.01 0.01 0.01 0.01 0.02 0.02 0.02 0.03 0.03 0.03 0.03 0.03 0.03 0.04 0.06 0.08 0.10 0.12 0.13 0.13 0.10 0.07 0.05 0.05 0.05
0.00 0.00 0.00 0.00 0.00 0.01 0.02 0.03 0.03 0.03 0.02 0.02 0.06 0.10 0.07 0.04 0.02 0.01 0.01 0.03 0.03 0.02 0.02 0.01 0.01 0.01 0.01 0.01 0.02 0.03 0.04 0.04 0.04 0.04 0.05 0.05 0.04 0.05 0.12 0.16 0.21 0.24 0.27 0.26 0.22 0.18 0.17 0.16 0.10
0.00 0.00 0.00 0.00 0.00 0.00 0.00 0.01 0.02 0.03 0.05 0.08 0.14 0.15 0.08 0.06 0.03 0.02 0.04 0.06 0.06 0.06 0.05 0.05 0.04 0.03 0.03 0.02 0.04 0.05 0.05 0.07 0.06 0.07 0.12 0.15 0.20 0.16 0.11 0.22 0.43 0.52 0.60 0.58 0.53 0.53 0.42 0.28 0.21
0.00 0.00 0.00 0.00 0.00 0.00 0.00 0.01 0.01 0.02 0.05 0.13 0.24 0.26 0.14 0.12 0.10 0.06 0.06 0.10 0.18 0.23 0.18 0.10 0.07 0.06 0.06 0.06 0.06 0.07 0.09 0.16 0.14 0.14 0.22 0.34 0.33 0.24 0.21 0.24 0.45 0.61 0.72 0.61 0.81 0.94 0.64 0.59 0.71
0.00 0.00 0.00 0.00 0.00 0.00 0.00 0.01 0.01 0.02 0.04 0.05 0.09 0.18 0.28 0.26 0.22 0.17 0.15 0.22 0.34 0.36 0.28 0.21 0.16 0.14 0.15 0.19 0.21 0.25 0.23 0.25 0.26 0.31 0.35 0.44 0.47 0.40 0.37 0.43 0.46 0.56 0.66 0.86 0.99 1.10 1.03 1.04 1.00
0.00 0.00 0.00 0.00 0.00 0.00 0.01 0.02 0.02 0.03 0.03 0.03 0.03 0.06 0.14 0.24 0.23 0.23 0.30 0.46 0.47 0.38 0.33 0.33 0.32 0.36 0.41 0.48 0.53 0.55 0.48 0.45 0.50 0.56 0.56 0.59 0.69 0.64 0.63 0.62 0.63 0.61 0.76 1.02 1.22 1.24 1.31 1.39 1.31
0.00 0.00 0.00 0.00 0.00 0.00 0.01 0.02 0.03 0.05 0.04 0.03 0.03 0.05 0.06 0.11 0.20 0.26 0.34 0.46 0.52 0.52 0.59 0.64 0.70 0.81 0.83 0.85 0.81 0.78 0.75 0.73 0.70 0.75 0.75 0.82 0.94 1.01 0.97 0.87 0.88 0.79 0.85 0.99 1.22 1.36 1.62 1.58 1.53
0.00 0.00 0.00 0.00 0.00 0.01 0.01 0.05 0.08 0.07 0.05 0.04 0.05 0.07 0.08 0.10 0.15 0.22 0.29 0.39 0.52 0.69 0.89 1.09 1.27 1.34 1.33 1.28 1.15 1.06 1.06 1.05 1.05 1.10 1.14 1.25 1.32 1.37 1.32 1.13 1.04 1.09 1.16 1.22 1.30 1.42 1.66 1.62 1.48
0.00 0.00 0.00 0.01 0.01 0.01 0.02 0.08 0.10 0.10 0.09 0.07 0.09 0.11 0.12 0.13 0.19 0.26 0.34 0.47 0.60 0.78 0.98 1.38 1.77 1.83 1.77 1.67 1.54 1.43 1.35 1.32 1.32 1.35 1.39 1.47 1.55 1.58 1.51 1.27 1.16 1.39 1.43 1.41 1.49 1.53 1.61 1.69 1.71
0.00 0.00 0.01 0.03 0.03 0.02 0.04 0.15 0.20 0.18 0.16 0.12 0.14 0.15 0.17 0.16 0.23 0.32 0.48 0.69 0.81 1.02 1.45 2.03 2.26 2.30 2.28 2.07 1.89 1.76 1.68 1.57 1.49 1.52 1.47 1.52 1.61 1.58 1.59 1.31 1.21 1.49 1.63 1.59 1.50 1.67 1.86 1.82 1.84
0.01 0.01 0.02 0.05 0.05 0.06 0.09 0.15 0.23 0.30 0.34 0.32 0.23 0.21 0.22 0.25 0.35 0.49 0.67 0.85 1.05 1.44 1.94 2.34 2.60 2.78 2.76 2.69 2.48 2.15 1.91 1.69 1.62 1.57 1.46 1.39 1.35 1.45 1.64 1.36 1.36 1.63 1.68 1.62 1.70 1.83 1.99 1.86 1.90
0.02 0.04 0.08 0.08 0.06 0.11 0.18 0.25 0.32 0.33 0.35 0.36 0.33 0.29 0.31 0.43 0.56 0.64 0.80 0.99 1.24 1.63 1.98 2.47 2.77 2.85 2.83 2.84 2.56 2.17 1.80 1.63 1.50 1.40 1.32 1.33 1.37 1.51 1.77 1.54 1.54 1.61 1.54 1.53 1.72 1.85 1.78 1.65 2.05
0.04 0.06 0.11 0.13 0.09 0.11 0.21 0.39 0.49 0.40 0.42 0.41 0.40 0.46 0.53 0.65 0.76 0.89 1.07 1.19 1.24 1.43 1.80 2.14 2.20 2.02 1.89 1.88 1.86 1.74 1.68 1.53 1.40 1.35 1.40 1.38 1.43 1.50 1.61 1.62 1.54 1.55 1.52 1.38 1.46 1.71 1.60 1.33 1.76
0.06 0.06 0.07 0.11 0.12 0.17 0.31 0.55 0.64 0.49 0.45 0.49 0.54 0.69 0.82 0.85 0.95 1.05 1.13 1.18 1.18 1.21 1.37 1.51 1.40 1.27 1.25 1.34 1.45 1.51 1.62 1.54 1.54 1.61 1.65 1.52 1.54 1.55 1.63 1.53 1.39 1.34 1.36 1.23 1.22 1.42 1.50 1.30 1.37
0.10 0.05 0.04 0.05 0.09 0.22 0.37 0.64 0.82 0.65 0.59 0.58 0.62 0.72 0.78 0.79 0.83 0.86 0.87 0.97 0.98 0.97 1.05 1.20 1.18 1.13 1.22 1.44 1.55 1.58 1.72 1.84 1.99 2.19 2.13 1.98 1.82 1.70 1.61 1.44 1.27 1.11 1.10 1.05 1.02 1.18 1.29 1.31 1.13
0.05 0.03 0.03 0.04 0.07 0.16 0.25 0.45 0.73 0.82 0.70 0.59 0.62 0.69 0.70 0.73 0.75 0.72 0.76 0.86 0.91 0.83 0.87 1.07 1.19 1.32 1.52 1.71 1.81 1.90 1.97 2.05 2.05 2.07 1.99 1.88 1.79 1.66 1.50 1.36 1.23 1.12 1.04 0.97 0.95 0.99 1.03 1.08 1.00
0.04 0.05 0.08 0.08 0.11 0.28 0.31 0.35 0.65 0.73 0.65 0.58 0.47 0.46 0.53 0.54 0.54 0.55 0.63 0.88 1.10 1.08 1.00 1.05 1.22 1.42 1.59 1.68 1.76 1.78 1.74 1.71 1.61 1.50 1.39 1.32 1.29 1.24 1.18 1.10 0.99 0.94 0.94 0.95 0.93 0.90 0.92 0.94 0.96
0.04 0.08 0.27 0.43 0.51 0.58 0.35 0.36 0.62 0.58 0.58 0.52 0.55 0.56 0.42 0.36 0.42 0.40 0.38 0.45 0.52 0.59 0.62 0.64 0.69 0.88 1.03 1.12 1.16 1.18 1.18 1.10 1.00 0.92 0.85 0.79 0.74 0.70 0.67 0.69 0.70 0.71 0.72 0.73 0.75 0.74 0.75 0.83 0.89
0.04 0.06 0.17 0.24 0.30 0.39 0.38 0.72 0.73 0.50 0.40 0.41 0.46 0.39 0.25 0.20 0.20 0.19 0.16 0.18 0.31 0.45 0.56 0.60 0.56 0.55 0.56 0.60 0.65 0.62 0.64 0.61 0.58 0.63 0.57 0.53 0.53 0.50 0.48 0.51 0.54 0.56 0.59 0.61 0.64 0.64 0.64 0.65 0.70
0.04 0.04 0.04 0.06 0.10 0.22 0.36 0.73 0.70 0.42 0.39 0.37 0.26 0.16 0.13 0.10 0.08 0.07 0.07 0.08 0.16 0.30 0.39 0.41 0.43 0.46 0.49 0.52 0.50 0.43 0.39 0.39 0.39 0.43 0.43 0.45 0.49 0.44 0.45 0.49 0.54 0.57 0.60 0.61 0.60 0.60 0.61 0.69 0.74
0.05 0.04 0.03 0.04 0.07 0.11 0.24 0.52 0.67 0.46 0.41 0.33 0.21 0.16 0.10 0.06 0.03 0.03 0.03 0.04 0.07 0.14 0.24 0.32 0.37 0.41 0.46 0.50 0.48 0.41 0.35 0.30 0.30 0.34 0.40 0.43 0.42 0.43 0.46 0.48 0.55 0.58 0.57 0.55 0.54 0.55 0.58 0.66 0.76
0.04 0.04 0.03 0.03 0.04 0.07 0.16 0.31 0.29 0.29 0.26 0.23 0.16 0.09 0.05 0.02 0.01 0.02 0.07 0.12 0.18 0.28 0.37 0.43 0.45 0.42 0.43 0.45 0.44 0.41 0.36 0.33 0.33 0.34 0.37 0.39 0.39 0.41 0.45 0.48 0.51 0.52 0.53 0.53 0.55 0.56 0.61 0.67 0.72
0.04 0.03 0.03 0.03 0.03 0.03 0.09 0.22 0.13 0.11 0.11 0.08 0.05 0.03 0.02 0.01 0.02 0.06 0.13 0.20 0.25 0.33 0.42 0.47 0.52 0.54 0.56 0.60 0.65 0.71 0.69 0.62 0.53 0.41 0.38 0.42 0.47 0.48 0.49 0.51 0.53 0.51 0.54 0.61 0.68 0.67 0.71 0.76 0.77